Location: Broniszew Stary
(50.9857°N, 19.1494°E)
Time: 22:09:11
(UTC+00:00)

Daily predictions for brighter satellites

Satellite Brightness Start Highest point End
(mag) Time Altitude Azimuth Time Altitude Azimuth Time Altitude Azimuth
Cosmos 1455 Rocket 3.6 15:09:34 10° SSW 15:13:52 63° WNW 15:18:13 10° N
USA 215 3.6 15:07:39 10° ENE 15:14:05 59° NNW 15:20:30 10° W
Cosmos 1943 Rocket 4.3 15:12:50 10° NNW 15:14:21 11° NNW 15:15:52 10° N
Cosmos 1570 Rocket 4.3 15:09:34 10° NNW 15:14:56 79° WSW 15:20:14 10° SSE
Cosmos 1602 Rocket 4.1 15:11:00 10° N 15:15:07 37° ENE 15:19:09 10° SE
Cosmos 1634 Rocket 4.0 15:09:13 10° S 15:15:23 75° E 15:21:33 10° NNE
CZ-2D R/B 4.3 15:14:20 10° ESE 15:16:28 17° ENE 15:18:37 10° NNE
Cosmos 2227 Rocket 2.6 15:11:37 10° NNW 15:16:55 39° NE 15:22:13 10° ESE
Cosmos 1461 3.9 15:17:28 10° S 15:20:48 27° ESE 15:24:10 10° ENE
Cosmos 2369 Rocket 3.7 15:16:10 10° WSW 15:21:02 29° NW 15:25:58 10° NNE
Cosmos 773 Rocket 4.0 15:17:37 10° NNW 15:22:52 89° ENE 15:28:07 10° SSE
Cosmos 1486 Rocket 4.4 15:18:12 10° S 15:23:10 48° ESE 15:28:13 10° NNE
BREEZE-M DEB (TANK) 2.5 15:21:13 10° W 15:23:43 71° S 15:29:57 10° E
YAOGAN 1 4.3 15:23:07 10° E 15:24:53 12° NE 15:26:38 10° NNE
Cosmos 2279 Rocket 4.0 15:20:59 10° S 15:27:06 65° E 15:33:17 10° NNE
Cosmos 1743 2.3 15:26:45 10° N 15:29:57 53° ENE 15:33:08 10° SSE
Cosmos 2151 3.1 15:26:10 10° N 15:30:12 48° ENE 15:34:14 10° SSE
Cosmos 1697 Rocket 3.6 15:27:55 10° SSE 15:32:40 29° ESE 15:37:26 10° NE
Cosmos 1867 3.6 15:27:28 10° NW 15:32:56 69° NE 15:38:22 10° SE
Cosmos 2278 Rocket 4.4 15:32:25 10° NNW 15:33:41 11° NNW 15:34:57 10° N
NOSS 2-2 (D) 2.6 15:33:03 10° SW 15:36:18 87° NW 15:39:04 12° NE
IGS 5A 3.3 15:34:32 10° SSE 15:38:29 85° ENE 15:42:29 10° NNW
Cosmos 1607 4.1 15:32:50 10° NW 15:39:05 80° SW 15:45:23 10° SSE
MOS 1 Rocket 4.0 15:34:37 10° SE 15:39:10 37° ENE 15:43:57 10° N
IRIDIUM 106 4.5 15:34:15 10° N 15:39:22 51° E 15:44:26 10° SSE
Cosmos 1356 Rocket 4.4 15:38:55 10° SSW 15:42:50 46° WNW 15:46:48 10° N
Cosmos 1900 4.3 15:37:47 10° NW 15:42:52 81° NE 15:47:50 10° SE
BREEZE M DEB (TANK) 4.5 15:27:23 10° WNW 15:43:16 62° SSW 15:47:27 10° SE
BREEZE-M DEB (TANK) 3.2 15:40:38 10° W 15:43:21 75° S 15:50:55 10° E
SAR-Lupe-4 4.0 15:41:07 10° SE 15:44:26 39° ENE 15:47:48 10° N
ARIANE 5 R/B 2.6 15:40:23 10° SE 15:45:18 54° ENE 15:50:19 10° N
Cosmos 1825 Rocket 3.9 15:44:13 10° N 15:48:21 40° ENE 15:52:24 10° SE
Intercosmos 24 4.4 15:44:37 10° NNW 15:48:24 57° W 15:51:54 10° S
Cosmos 2084 Rocket 3.6 15:44:12 10° NW 15:48:24 75° SW 15:52:36 10° SE
NOSS 3-2 (A) 3.3 15:44:01 10° SW 15:49:09 76° NW 15:55:05 12° NE
Cosmos 2180 Rocket 4.5 15:43:13 10° S 15:49:17 68° E 15:55:24 10° NNE
Cosmos 1782 2.5 15:45:56 10° S 15:49:31 85° W 15:53:08 10° N
NOSS 3-2 (C) 3.4 15:45:49 10° SSW 15:50:44 55° SE 15:55:51 14° NE
Cosmos 1656 3.8 15:45:24 10° SSW 15:51:03 85° WNW 15:56:47 10° NNE
Cosmos 1758 Rocket 4.0 15:47:22 10° NNW 15:51:39 65° W 15:55:53 10° S
Cosmos 2098 Rocket 3.1 15:50:36 10° S 15:54:51 86° E 15:59:54 10° N
Gbstr 26 Del rocket 4.0 15:51:36 10° SSW 15:55:11 29° SSE 15:57:35 15° E
SAR-Lupe-1 4.3 15:51:47 10° SE 15:55:14 46° ENE 15:58:44 10° N
UNK 3.8 15:51:54 10° NNE 15:56:27 59° ESE 16:00:56 10° S
NOSS 2-2 (E) 2.8 15:53:19 10° SW 15:56:34 70° NW 15:58:41 18° NE
Meteor 1-20 Rocket 4.1 15:52:59 10° NNW 15:58:29 83° ENE 16:03:58 10° SSE
CZ-4C R/B 3.2 15:54:06 10° NW 16:00:56 78° SW 16:09:30 10° SE
CZ-2D R/B 4.4 15:57:26 10° ESE 16:00:57 27° ENE 16:04:25 10° N
Cosmos 2266 Rocket 3.9 15:55:15 10° N 16:01:27 80° E 16:07:31 10° SSE
SPOT 1/Viking Rocket 4.0 15:57:20 10° SE 16:02:07 39° ENE 16:06:57 10° N
Cosmos 2082 4.4 15:58:55 10° NNW 16:04:02 32° NE 16:08:44 12° ESE
SMAP 3.1 16:01:25 10° SSE 16:06:04 84° WSW 16:10:46 10° NNW
Cosmos 1076 Rocket 3.9 16:02:43 10° N 16:06:47 40° ENE 16:10:52 10° SE
PSLV R/B 4.5 16:06:53 19° E 16:08:23 23° ENE 16:11:36 10° N
IRS-P3 4.1 16:03:44 10° SSE 16:08:58 61° ENE 16:14:12 10° N
Cosmos 2297 Rocket 3.2 16:04:12 10° NW 16:09:41 50° WSW 16:15:06 10° S
Landsat 7 3.7 16:06:14 10° SSE 16:10:53 86° ENE 16:15:34 10° NNW
COSMO-SKYMED 1 4.0 16:12:53 17° ESE 16:12:53 17° ESE 16:14:58 10° SE
Cosmos 2058 Rocket 4.2 16:09:37 10° SE 16:13:07 23° E 16:13:33 23° ENE
[s.n.66845] 3.6 16:11:48 10° N 16:12:44 16° N 16:12:44 16° N
Meteor 1-28 Rocket 3.7 16:10:55 10° N 16:14:11 50° WNW 16:17:26 10° SSW
SJ-6F 4.3 16:10:25 10° SSE 16:14:20 60° ENE 16:18:19 10° N
[s.n.66847] 3.6 16:12:15 10° N 16:13:11 16° N 16:13:11 16° N
[s.n.66846] 3.6 16:12:40 10° N 16:13:36 16° N 16:13:36 16° N
[s.n.66843] 3.6 16:13:12 10° N 16:14:08 16° N 16:14:08 16° N
[s.n.66844] 3.6 16:13:38 10° N 16:14:35 16° N 16:14:35 16° N
[s.n.66842] 3.6 16:14:10 10° N 16:15:06 16° N 16:15:06 16° N
[s.n.66841] 3.6 16:14:37 10° N 16:15:33 16° N 16:15:33 16° N
[s.n.66840] 3.6 16:15:07 10° N 16:16:02 16° N 16:16:02 16° N
[s.n.66838] 3.6 16:15:36 10° N 16:16:31 17° N 16:16:31 17° N
[s.n.66839] 3.6 16:16:05 10° N 16:17:01 17° N 16:17:01 17° N
Cosmos 1538 Rocket 4.1 16:13:17 10° NNW 16:18:28 54° ENE 16:23:39 10° SE
[s.n.66837] 3.6 16:16:32 10° N 16:17:27 17° N 16:17:27 17° N
[s.n.66836] 3.6 16:17:01 10° N 16:17:57 17° N 16:17:57 17° N
[s.n.66835] 3.6 16:17:32 10° N 16:18:27 17° N 16:18:27 17° N
[s.n.66834] 3.6 16:18:01 10° N 16:18:56 17° N 16:18:56 17° N
[s.n.66833] 3.6 16:18:27 10° N 16:19:22 17° N 16:19:22 17° N
[s.n.66832] 3.6 16:18:59 10° N 16:19:54 17° N 16:19:54 17° N
[s.n.66831] 3.6 16:19:25 10° N 16:20:19 17° N 16:20:19 17° N
[s.n.66830] 3.6 16:19:50 10° NNW 16:20:45 17° N 16:20:45 17° N
[s.n.66828] 3.6 16:20:16 10° NNW 16:21:11 17° N 16:21:11 17° N
[s.n.66829] 3.6 16:20:48 10° NNW 16:21:42 17° N 16:21:42 17° N
[s.n.66827] 3.6 16:21:19 10° NNW 16:22:13 17° N 16:22:13 17° N
Cosmos 1606 Rocket 3.5 16:19:47 10° S 16:24:10 72° E 16:28:36 10° NNE
[s.n.66826] 3.6 16:21:49 10° NNW 16:22:43 17° N 16:22:43 17° N
[s.n.66825] 3.6 16:22:15 10° NNW 16:23:09 17° N 16:23:09 17° N
[s.n.66824] 3.6 16:22:46 10° NNW 16:23:40 17° N 16:23:40 17° N
[s.n.66823] 3.6 16:23:17 10° NNW 16:24:10 17° N 16:24:10 17° N
[s.n.66822] 3.6 16:23:46 10° NNW 16:24:39 17° N 16:24:39 17° N
[s.n.66821] 3.7 16:24:14 10° NNW 16:25:07 17° N 16:25:07 17° N
Cosmos 1503 Rocket 4.1 16:23:50 10° SSW 16:29:05 79° WNW 16:33:38 14° NNE
Cosmos 2219 3.3 16:24:13 10° NNW 16:29:50 52° NE 16:35:26 10° SE
CENTAUR R/B 3.6 16:25:53 10° W 16:31:45 38° NNW 16:36:56 18° NE
SL-16 R/B 3.4 16:26:19 10° N 16:32:18 50° WNW 16:38:13 10° SW
GEOS 3 Rocket 3.7 16:28:50 22° NE 16:32:30 89° SE 16:37:54 10° SW
AQUARIUS 4.2 16:29:40 10° S 16:34:05 77° WSW 16:38:31 10° NNW
Cosmos 1980 Rocket 2.6 16:30:41 10° S 16:35:56 41° ESE 16:37:57 30° ENE
Resurs 1-3 3.7 16:32:10 10° SE 16:36:16 46° ENE 16:40:25 10° N
NOSS 2-3 (C) 3.7 16:33:36 10° SSW 16:36:48 35° SE 16:36:50 35° ESE
Cosmos 1844 Rocket 3.7 16:32:17 10° NNW 16:36:59 26° NE 16:37:20 26° NE
Lacrosse 5 rocket 2.1 16:33:40 10° WNW 16:37:02 31° N 16:37:41 29° NNE
Meteor 2-20 4.4 16:31:43 10° S 16:37:44 59° E 16:43:45 10° NNE
Cosmos 1354 Rocket 4.0 16:33:24 10° SSW 16:38:40 90° ESE 16:42:34 19° NNE
Meteor 1-5 Rocket 4.1 16:33:49 10° NNW 16:39:12 90° SW 16:44:40 10° S
BREEZE M DEB (TANK) 3.0 16:39:41 10° SW 16:41:17 30° SSW 16:41:17 30° SSW
Lacrosse 4 Rocket 3.8 16:39:51 10° NW 16:41:44 13° NNW 16:43:36 10° N
Cosmos 2263 Rocket 2.1 16:39:07 10° NNW 16:44:50 87° ENE 16:50:32 10° SSE
Spot 4 Rocket 3.9 16:39:50 10° SSE 16:44:52 63° ENE 16:49:56 10° N
Cosmos 1244 Rocket 4.5 16:40:16 10° N 16:46:29 57° ENE 16:52:34 10° SSE
Cosmos 1726 Rocket 3.6 16:43:27 10° S 16:48:06 90° WSW 16:51:54 15° N
CZ-2D R/B 4.5 16:45:17 10° SSW 16:48:10 34° W 16:51:06 10° NNW
Cosmos 2369 4.5 16:43:55 10° SSE 16:48:44 31° ESE 16:48:44 31° ESE
Cosmos 1898 Rocket 3.9 16:45:05 10° S 16:49:48 38° ESE 16:49:57 37° E
USA 238 DEB 3.7 16:45:32 10° SSW 16:51:25 51° ESE 16:53:47 35° ENE
USA 238 3.7 16:45:39 10° SSW 16:51:32 51° ESE 16:53:52 35° ENE
Cosmos 44 Rocket 4.2 16:48:54 10° NNW 16:53:30 32° NNE 16:53:32 32° NNE
USA 215 3.5 16:53:50 33° ENE 16:56:38 55° N 17:03:00 10° WNW
Cosmos 1461 3.6 16:53:37 10° WSW 16:57:23 45° NW 16:58:30 35° N
Cosmos 1933 4.3 16:54:39 10° SSW 16:58:19 43° WNW 17:01:21 14° N
Meteor 2-20 Rocket 4.4 16:53:21 10° S 16:59:27 61° E 17:04:05 17° NNE
YAOGAN 1 2.3 16:55:46 10° SSE 17:00:02 80° ENE 17:04:18 10° NNW
SKYMED 2 3.4 16:58:49 43° NNE 17:00:13 77° ESE 17:04:33 10° S
Cosmos 923 Rocket 4.0 16:55:14 10° NNW 17:00:22 54° ENE 17:01:12 48° E
Cosmos-2242 3.2 16:56:39 10° S 17:00:12 51° SE 17:00:12 51° SE
Cosmos 2227 Rocket 3.3 16:55:42 10° NW 17:01:04 46° WSW 17:06:24 10° S
SL-08 R/B 4.5 16:55:01 10° N 17:01:18 61° ENE 17:07:33 10° SSE
Cosmos 372 Rocket 3.9 16:57:30 10° S 17:02:32 57° ESE 17:03:17 52° ENE
BREEZE-M DEB (TANK) 4.4 17:00:23 10° SSW 17:02:20 19° S 17:02:20 19° S
NOSS 2-3 (E) 3.0 17:00:06 10° SW 17:03:38 80° SSE 17:03:38 80° SSE
NOSS 2-3 (D) 3.1 17:00:44 10° SW 17:04:14 74° SSE 17:04:14 74° SSE
Cosmos 1937 Rocket 4.3 17:03:52 10° S 17:07:22 34° SE 17:07:22 34° SE
Cosmos 1655 Rocket 4.5 17:06:44 10° NNW 17:12:52 60° W 17:18:58 10° S
Meteor 2-10 4.2 17:08:52 10° NNW 17:14:14 75° W 17:19:45 10° S
BREEZE-M DEB (TANK) 4.5 16:48:34 10° W 17:16:01 77° SSW 17:19:11 37° ESE
Cosmos 1697 Rocket 3.2 17:10:47 10° SW 17:16:18 57° NW 17:19:15 27° NNE
Aureole 1 Rocket 3.3 17:13:59 10° SSW 17:18:32 84° ESE 17:19:37 57° NNE
Cosmos 2278 Rocket 4.4 17:19:04 10° N 17:19:59 11° N 17:19:59 11° N
Resurs 01 Rocket 4.0 17:29:46 12° N 17:29:46 12° N 17:30:07 10° N
NOAA 6 4.0 17:26:36 10° SSE 17:31:43 78° WSW 17:36:50 10° NNW
COSMOS 2455 4.2 17:26:57 10° S 17:29:38 24° SSE 17:29:38 24° SSE
Cosmos 1680 Rocket 3.8 17:27:37 10° NNW 17:31:46 54° N 17:31:46 54° N
Meteor 2-2 Rocket 4.2 17:34:34 10° SSW 17:40:13 79° WNW 17:41:51 48° N
Gbstr 26 Del rocket 4.2 17:37:16 10° WSW 17:39:37 35° WSW 17:39:37 35° WSW
NOSS 3-2 (C) 4.1 17:36:38 10° W 17:41:47 43° NNW 17:43:16 37° N
COSMO-SKYMED 1 3.9 17:49:13 33° SW 17:49:13 33° SW 17:51:42 10° SSW
Cosmos 2082 4.1 17:42:51 10° NW 17:48:29 60° WSW 17:50:41 36° S
Cosmos 2058 Rocket 4.1 17:46:25 10° SSW 17:50:43 45° WNW 17:50:44 45° WNW
Cosmos 1553 Rocket 4.5 18:05:55 10° SSW 18:11:58 57° WNW 18:14:52 31° N
Lacrosse 5 rocket 4.3 18:11:10 10° NW 18:11:16 11° NW 18:11:16 11° NW
USA 281 4.4 18:22:44 31° N 18:22:44 31° N 18:26:05 10° NNW
Cosmos 1980 Rocket 3.1 18:14:32 10° WSW 18:19:44 43° NW 18:19:44 43° NW
Cosmos 1844 Rocket 3.9 18:15:49 10° NNW 18:18:59 35° NW 18:18:59 35° NW
CENTAUR R/B 4.0 18:18:04 10° NW 18:24:02 33° N 18:24:02 33° N
USA 215 3.8 18:41:10 53° NW 18:41:10 53° NW 18:46:00 10° WNW
USA 238 DEB 4.4 18:36:16 10° WSW 18:41:14 46° WNW 18:41:14 46° WNW
USA 238 4.4 18:36:21 10° WSW 18:41:19 46° WNW 18:41:19 46° WNW
